Lid_Strength_Index
0 0 0 0 0 0 1 0 -0 -0 -1 -1 -1 -0 -0 0 0 -0 0 1 1 0
1 1 1 0 -0 0 0 0 -0 -0 -0 -0 -1 -0 -0 0 0 0 0 1 1 1
1 0 0 0 1 0 -0 -0 -0 0 -0 -0 -0 -0 0 0 0 1 1 1 1 1
1 0 0 0 0 0 -0 -0 0 0 0 0 0 0 0 1 1 1 1 1 1 1
1 0 0 1 0 0 0 -0 0 0 0 0 0 0 1 1 1 1 2 1 1 2
1 1 1 0 0 0 0 0 0 0 0 0 1 1 0 1 1 1 1 1 1 1
1 1 1 0 0 0 0 0 0 0 0 0 0 1 1 1 1 1 1 1 1 1
1 1 1 0 0 0 0 0 0 0 0 0 0 0 0 0 1 1 1 1 1 0
1 1 1 1 1 0 0 0 0 0 0 1 0 7 4 1 1 1 1 1 1 1
1 1 1 1 1 1 1 0 1 1 0 1 0 9 7 4 0 1 1 1 1 1
1 1 1 1 1 1 1 1 1 1 1 1 0 9 8 6 0 1 1 1 1 1
1 1 1 1 1 1 1 1 1 1 1 1 1 10 9 3 1 1 1 1 0 0
1 1 1 1 1 1 1 1 1 1 0 3 1 10 9 3 1 2 2 1 1 5
1 1 1 1 0 1 1 1 1 1 1 1 1 3 10 7 1 1 2 2 1 1